sat.trackr.live / text

‹ back to catalog

KUIPER-00222

NORAD 67782 · 2026-030U

PAYLOAD ACTIVE UNKNOWN

§ Identity

Operator
Country
US
Launch date
2026-02-12
Launch site
FRGUI
Launch vehicle
Mass (kg)
RCS (m²)

External: N2YO · Heavens-Above · Gunter

§ Orbital elements

Epoch: 2026-05-24T21:45:30.695328Z

Period
97.30 min
Inclination
51.8990°
Eccentricity
0.0000632
Mean motion
14.79898862 rev/d
Perigee alt
629.2 km
Apogee alt
630.1 km
Semi-major
7,007.8 km
B*
1.8683e-3
RAAN
223.7333°
Arg perigee
277.6089°
Mean anomaly
82.4801°
Rev number
1,663

§ Raw data

KUIPER-002221 67782U 26030U   26144.90660527  .00014040  00000+0  18683-2 0  99992 67782  51.8990 223.7333 0000632 277.6089  82.4801 14.79898862 16638

JSON: /api/v1/satellites/67782 · /tle

For live sub-satellite position, see the globe view (requires WebGL).

§ Visibility from observer

Set your observer location to see the next 7 days of passes ≥ 10°. The values pass through the URL so the page stays shareable.

No JS? Fill the form by hand. The geolocation button needs JavaScript.